FW8545 Weather Reports


Display with metric or nautical units.
time (UTC)temp
F
wind
direction
speed
MPH
gust
MPH
rain 1hr
in
rain 24hr
in
rain mn
in
humidity
%
barometer
mb
20260503043020 55 82 0.0 0.0 0.00 0.00 0.00 54 1013.6
20260503042009 56 82 0.0 0.0 0.00 0.00 0.00 53 1013.5
20260503040936 57 82 0.0 0.0 0.00 0.00 0.00 52 1013.3
20260503035939 57 82 0.0 0.0 0.00 0.00 0.00 52 1013.3
20260503034947 58 82 0.0 0.0 0.00 0.00 0.00 51 1013.3
20260503034008 59 82 0.0 0.0 0.00 0.00 0.00 50 1013.4
20260503032935 59 82 0.0 0.0 0.00 0.00 0.00 48 1013.3
20260503031920 60 53 0.0 0.0 0.00 0.00 0.00 47 1013.1
20260503030929 61 159 0.0 1.0 0.00 0.00 0.00 45 1013.1
20260503025936 62 61 0.0 0.0 0.00 0.00 0.00 44 1013.1
20260503024936 62 157 0.0 1.0 0.00 0.00 0.00 43 1013.0
20260503023935 63 159 0.0 0.0 0.00 0.00 0.00 42 1013.0
20260503022915 64 41 0.0 0.0 0.00 0.00 0.00 41 1013.0
20260503020708 65 159 0.0 0.0 0.00 0.00 0.00 38 1013.0
20260503015634 66 159 0.0 0.0 0.00 0.00 0.00 37 1013.1
20260503013521 68 154 0.0 0.0 0.00 0.00 0.00 34 1013.3
20260503012459 69 59 0.0 0.0 0.00 0.00 0.00 31 1013.4
20260503011440 71 134 0.0 0.0 0.00 0.00 0.00 30 1013.4
20260503010454 72 115 0.0 0.0 0.00 0.00 0.00 28 1013.4
20260503005422 72 161 0.0 0.0 0.00 0.00 0.00 28 1013.5
20260503004433 72 68 0.0 0.0 0.00 0.00 0.00 28 1013.6
20260503003445 72 70 0.0 0.0 0.00 0.00 0.00 28 1013.8
20260503002424 72 296 0.0 2.0 0.00 0.00 0.00 28 1013.8
20260503001357 72 105 0.0 0.0 0.00 0.00 0.00 29 1013.9
20260503000403 72 240 0.0 0.0 0.00 0.00 0.00 29 1014.0
20260502235418 72 130 0.0 1.0 0.00 0.00 0.00 29 1014.0
20260502234358 71 57 0.0 0.0 0.00 0.00 0.00 31 1014.3
20260502233331 71 161 0.0 0.0 0.00 0.00 0.00 30 1014.6
20260502232331 72 191 0.0 0.0 0.00 0.00 0.00 30 1014.7
20260502231349 71 88 0.0 0.0 0.00 0.00 0.00 31 1014.8
20260502230316 71 105 0.0 2.0 0.00 0.00 0.00 32 1015.0
20260502225251 71 92 0.0 0.0 0.00 0.00 0.00 32 1015.0
20260502224246 70 98 0.0 0.0 0.00 0.00 0.00 31 1015.3
20260502223247 70 70 0.0 1.0 0.00 0.00 0.00 32 1015.5
20260502222300 70 125 0.0 2.0 0.00 0.00 0.00 33 1015.7
20260502221233 69 143 0.0 0.0 0.00 0.00 0.00 33 1015.8
20260502220230 69 86 0.0 0.0 0.00 0.00 0.00 35 1015.8
20260502215237 69 74 0.0 3.0 0.00 0.00 0.00 33 1016.0
20260502213131 69 89 0.0 1.0 0.00 0.00 0.00 34 1016.3
20260502210954 68 49 0.0 3.0 0.00 0.00 0.00 34 1016.6
20260502205955 69 346 0.0 0.0 0.00 0.00 0.00 33 1016.8
20260502204948 69 96 0.0 2.0 0.00 0.00 0.00 35 1017.0
20260502203944 68 103 0.0 0.0 0.00 0.00 0.00 36 1017.0
20260502202918 68 111 0.0 1.0 0.00 0.00 0.00 36 1017.3
20260502201913 67 54 0.0 3.0 0.00 0.00 0.00 36 1017.4
20260502195712 67 73 0.0 0.0 0.00 0.00 0.00 38 1017.9
20260502194641 66 150 0.0 0.0 0.00 0.00 0.00 37 1018.1
20260502193608 66 95 0.0 0.0 0.00 0.00 0.00 38 1018.1
20260502192555 65 67 0.0 1.0 0.00 0.00 0.00 39 1018.3
20260502190433 65 110 0.0 0.0 0.00 0.00 0.00 39 1018.5
20260502185425 64 156 0.0 0.0 0.00 0.00 0.00 40 1018.6
20260502184359 63 70 0.0 1.0 0.00 0.00 0.00 41 1018.8
20260502182251 64 145 0.0 0.0 0.00 0.00 0.00 39 1019.2
20260502181228 63 109 0.0 1.0 0.00 0.00 0.00 40 1019.4
20260502163748 59 89 0.0 0.0 0.00 0.00 0.00 46 1020.3
20260502162715 59 75 0.0 0.0 0.00 0.00 0.00 46 1020.4
20260502161737 58 338 0.0 0.0 0.00 0.00 0.00 48 1020.5
20260502152321 52 275 0.0 0.0 0.00 0.00 0.00 58 1020.7
20260502151314 51 275 0.0 0.0 0.00 0.00 0.00 63 1020.7
20260502150326 51 275 0.0 0.0 0.00 0.00 0.00 64 1020.7
20260502122953 46 295 0.0 0.0 0.00 0.00 0.00 70 1020.1
20260502121939 46 295 0.0 0.0 0.00 0.00 0.00 70 1020.1
20260502120907 47 295 0.0 0.0 0.00 0.00 0.00 69 1020.1
20260502115920 47 295 0.0 0.0 0.00 0.00 0.00 68 1020.1
20260502113758 48 295 0.0 0.0 0.00 0.00 0.00 66 1020.1
20260502110544 49 295 0.0 0.0 0.00 0.00 0.00 65 1020.1
20260502105609 49 295 0.0 0.0 0.00 0.00 0.00 65 1020.1
20260502103436 49 295 0.0 0.0 0.00 0.00 0.00 65 1020.1
20260502102443 49 338 0.0 0.0 0.00 0.00 0.00 65 1020.1
20260502101440 49 313 0.0 0.0 0.00 0.00 0.00 65 1020.0
20260502100409 49 321 0.0 0.0 0.00 0.00 0.00 65 1020.1
20260502080108 50 283 0.0 0.0 0.00 0.00 0.00 62 1019.8
20260502065819 51 259 0.0 0.0 0.00 0.00 0.00 60 1019.8
20260502064835 51 259 0.0 0.0 0.00 0.00 0.00 60 1019.8
20260502062659 51 293 0.0 2.0 0.00 0.00 0.00 59 1019.6
20260502061717 52 283 0.0 1.0 0.00 0.00 0.00 58 1019.7
20260502060719 52 288 0.0 1.0 0.00 0.00 0.00 57 1019.6
20260502054557 53 352 0.0 0.0 0.00 0.00 0.00 55 1019.4
20260502053618 53 352 0.0 0.0 0.00 0.00 0.00 55 1019.4
20260502051514 54 352 0.0 0.0 0.00 0.00 0.00 54 1019.3
20260502044301 55 342 0.0 2.0 0.00 0.00 0.00 53 1019.1
20260502043240 55 338 0.0 0.0 0.00 0.00 0.00 52 1018.8